Theta_e
319 319 319 319 319 318 318 318 318 318 318 318 318 318 319 319 319 319 320 320 320 320 321 322 324 326 325 319 319 329 352 344 330 333 333 332 328 328 324 326 327 324 327 330 332 333 333
320 319 319 319 318 318 318 318 318 317 317 317 317 318 318 318 319 319 319 319 319 319 320 322 325 325 325 315 330 332 332 331 331 331 332 332 328 329 326 326 325 326 327 329 330 332 335
320 320 319 318 318 317 317 317 317 317 317 317 317 317 317 318 318 318 318 318 318 319 321 323 325 326 319 317 327 329 331 331 334 331 328 332 331 328 329 325 329 327 323 328 329 321 324
322 320 320 319 318 317 317 317 317 317 317 317 317 318 318 318 318 318 318 317 317 320 322 324 326 324 315 326 327 325 329 330 333 332 331 333 332 329 327 330 327 326 323 314 322 326 323
322 321 321 321 319 319 318 317 317 317 318 317 317 317 316 316 316 317 316 316 318 322 325 327 323 320 314 327 320 323 327 327 332 333 334 334 330 326 327 322 318 322 313 314 317 327 320
321 321 321 321 320 320 319 319 318 317 316 317 316 316 316 316 316 315 314 315 325 321 324 326 323 316 321 316 320 320 329 330 329 330 329 328 326 321 322 321 307 314 313 316 315 321 327
321 321 321 320 321 320 320 319 318 318 317 317 316 316 316 315 315 314 316 324 317 315 320 314 315 313 317 320 322 322 328 326 327 325 319 324 319 315 317 322 320 318 317 316 318 327 324
321 321 320 320 321 320 320 319 319 318 317 317 316 316 315 315 314 313 314 317 321 322 314 320 317 318 319 319 313 316 323 320 322 317 321 319 315 321 323 322 321 317 316 315 321 322 320
322 320 320 320 321 321 320 320 319 318 318 317 316 315 314 314 313 314 320 320 327 325 313 315 319 315 317 318 313 314 319 321 320 318 318 315 319 323 321 320 319 318 315 316 315 320 321
322 321 320 320 321 321 320 320 318 318 318 317 316 315 314 311 313 326 322 327 326 325 307 310 313 316 316 316 311 318 321 320 319 317 318 318 322 321 320 318 320 314 321 319 317 316 310
324 322 321 320 320 320 320 319 318 318 317 317 317 315 313 311 313 320 326 326 327 322 298 312 313 320 317 312 315 314 320 318 315 317 319 316 319 318 318 319 320 316 321 318 318 315 315
325 324 323 321 320 319 320 319 318 317 317 317 316 314 311 317 318 321 328 327 322 305 298 309 313 311 310 312 313 316 314 319 320 317 319 318 324 322 321 323 322 322 319 317 316 313 307
325 324 323 322 320 319 319 318 318 317 316 315 313 312 311 318 322 330 327 321 305 299 311 310 310 311 309 308 309 311 310 309 308 307 309 315 316 322 324 318 321 318 314 307 304 305 304
325 324 323 322 321 320 319 319 318 317 315 314 311 309 314 318 326 328 324 312 300 306 308 314 312 310 306 309 309 310 310 307 311 311 310 308 306 316 322 319 316 317 315 307 302 302 302
325 324 323 322 321 320 320 319 317 316 315 312 309 323 323 328 326 327 318 304 305 310 311 312 312 308 307 308 308 309 309 308 309 311 306 308 309 318 320 323 320 316 312 318 309 310 306
324 324 323 322 322 321 320 319 317 316 314 311 314 326 327 330 328 323 313 304 310 315 315 313 307 309 306 307 306 307 308 311 310 312 314 312 306 315 317 321 321 317 319 310 308 300 300
323 323 322 322 322 321 320 319 317 315 312 310 318 321 328 330 325 317 308 309 313 317 315 311 310 309 309 308 308 307 308 311 313 313 314 312 310 311 316 315 313 315 312 314 313 312 304
323 323 322 322 322 321 321 319 316 313 310 312 324 317 329 328 312 313 310 313 311 315 315 313 314 312 310 310 308 308 308 311 315 314 309 313 311 308 312 318 321 318 314 313 308 307 309
322 322 322 323 322 322 321 318 315 312 311 312 320 321 327 324 307 308 313 313 315 314 313 312 311 313 314 310 307 309 310 315 315 313 311 313 309 305 309 315 317 313 315 316 315 314 310
323 322 322 322 323 322 321 318 315 313 312 311 321 316 318 319 317 313 312 311 311 316 314 314 313 314 312 310 313 311 310 314 315 315 329 318 311 310 306 309 313 310 313 316 315 309 310
323 322 321 321 322 323 321 318 315 313 312 312 321 319 320 312 311 313 314 314 311 310 314 314 312 312 312 309 310 311 315 314 315 319 316 314 308 311 312 313 312 314 313 312 311 313 309
323 322 321 321 322 323 322 318 316 314 311 314 319 320 325 322 319 313 308 311 311 313 313 312 310 313 314 311 312 311 314 315 313 315 313 315 310 312 311 314 314 312 313 314 314 314 313
322 321 320 320 321 322 321 319 316 314 311 319 321 324 321 314 318 315 313 313 313 316 317 317 315 312 313 315 318 320 323 322 318 314 312 312 311 310 307 312 312 308 312 313 313 316 315
321 321 319 318 319 321 322 319 317 316 312 317 320 320 316 312 316 315 316 317 317 317 316 319 319 316 318 327 327 324 323 323 321 320 318 312 312 311 306 310 302 313 318 316 314 316 318
321 320 318 318 318 320 322 319 318 317 315 317 321 319 317 313 316 317 317 318 320 320 319 319 322 322 325 324 319 315 313 314 315 319 318 319 314 309 305 305 309 313 315 315 314 314 318
320 319 317 317 317 319 322 319 318 317 315 317 322 323 318 313 314 317 316 319 316 316 318 319 324 327 324 320 316 310 307 311 309 312 318 317 318 311 308 304 303 314 318 322 321 311 320
319 319 318 317 317 318 321 320 318 317 315 315 320 325 317 312 317 318 315 315 320 320 317 322 323 320 324 317 311 309 309 316 309 311 310 314 315 310 308 306 311 320 321 322 309 311 320
319 318 318 318 317 317 320 320 318 317 315 315 321 327 317 313 315 318 319 316 317 319 316 320 318 322 318 313 311 311 311 315 315 316 313 308 312 310 311 308 306 323 323 315 323 322 321
318 317 318 317 317 317 320 320 317 316 315 314 318 327 326 317 316 321 322 322 320 320 317 321 316 312 321 318 314 314 314 315 313 309 317 307 312 315 316 316 326 325 323 326 324 324 326
Wind_Speed
13 13 12 12 13 13 13 12 12 13 13 13 14 14 14 15 15 16 16 16 17 17 18 18 18 17 14 10 13 12 11 9 9 11 14 19 15 9 8 6 8 13 4 12 8 15 10
13 13 13 13 13 13 13 13 13 13 13 14 14 15 15 15 15 16 16 16 17 17 18 18 17 19 8 16 5 13 11 9 13 16 17 17 14 9 8 7 8 7 29 8 9 26 16
13 14 14 13 13 13 13 13 13 14 14 14 15 15 15 16 16 17 18 17 19 19 18 17 13 8 12 18 12 4 9 12 14 13 15 12 7 13 14 3 10 12 24 20 20 27 11
12 14 14 14 13 13 13 13 14 14 14 15 15 15 15 16 18 18 18 18 20 19 17 16 9 7 10 17 10 17 12 13 14 14 13 15 11 14 14 3 12 9 16 10 10 4 3
12 13 13 13 13 13 13 13 14 14 14 14 16 16 16 17 18 18 19 21 21 17 12 10 7 9 17 2 13 15 16 17 16 16 14 11 12 15 18 13 5 11 7 9 14 10 9
12 12 13 14 14 14 13 13 13 14 15 15 15 16 17 17 17 18 24 22 6 11 7 10 11 11 19 13 13 16 19 16 15 15 15 14 13 14 4 3 6 13 3 7 13 15 19
12 13 13 14 14 13 14 14 15 15 15 15 15 16 16 17 16 16 15 4 7 8 14 15 12 14 6 10 5 8 12 15 14 15 16 16 14 17 9 6 21 23 19 17 27 27 16
11 12 13 14 14 13 14 14 14 15 16 16 15 16 17 17 17 16 9 7 11 11 11 24 21 19 18 3 8 14 16 16 17 17 16 17 17 6 8 9 19 18 16 19 19 5 6
10 12 13 14 13 13 13 14 14 15 15 15 16 16 16 18 21 9 11 16 12 13 9 17 24 21 15 11 12 11 20 19 18 19 20 21 18 12 16 13 22 23 14 8 7 6 9
12 12 12 14 14 13 14 14 15 15 15 15 15 15 16 21 7 8 12 13 11 10 8 14 20 19 20 14 18 19 18 18 19 21 21 20 6 21 7 10 18 7 9 7 12 7 8
10 9 13 14 15 15 14 15 17 16 16 16 16 15 14 8 14 8 7 5 7 5 8 14 16 5 15 21 3 20 17 20 22 22 15 19 18 23 12 16 9 7 14 15 12 15 12
11 10 10 14 15 15 15 16 18 18 18 17 16 15 16 6 8 16 15 6 7 8 13 9 11 11 15 17 20 15 16 15 20 22 20 23 19 11 12 21 5 10 15 15 16 14 6
11 11 10 10 13 14 14 17 17 19 19 18 17 12 9 10 4 6 9 7 7 11 7 11 15 14 18 18 20 19 17 17 19 18 20 20 21 16 18 10 17 6 20 15 6 4 9
11 11 11 11 11 12 13 14 18 19 20 20 20 16 10 10 9 12 8 9 10 15 20 5 5 16 16 17 20 19 14 16 21 21 15 16 18 19 9 19 8 12 14 10 7 8 5
11 11 11 12 11 13 13 13 16 18 20 21 31 6 6 9 15 9 8 12 11 14 8 4 8 11 15 16 14 20 17 17 19 22 21 15 18 14 19 22 15 17 12 13 9 4 8
11 11 11 11 11 12 14 15 18 20 22 17 8 9 10 11 13 8 9 17 20 18 7 5 13 10 12 16 17 19 16 17 17 23 23 21 15 17 19 20 19 15 14 3 5 8 8
10 10 10 11 11 12 13 14 17 20 26 20 5 7 11 11 10 8 11 17 19 10 4 9 15 16 13 12 17 16 14 12 15 16 20 19 20 17 19 18 18 15 13 6 14 22 8
10 10 10 10 11 11 12 13 15 17 26 3 8 9 9 10 8 10 13 20 19 6 10 9 11 15 10 13 14 15 17 14 13 13 16 16 14 15 15 16 23 21 14 17 13 12 10
9 9 9 10 10 10 11 12 13 12 13 9 7 4 7 10 10 12 18 22 23 5 15 10 10 12 16 15 5 13 16 10 9 8 13 13 16 15 5 17 11 11 18 14 14 12 14
10 8 9 9 10 10 10 12 12 11 9 6 7 5 7 9 12 17 16 19 19 8 16 13 11 12 9 12 11 5 14 7 9 10 5 10 17 16 9 10 10 19 20 13 19 12 4
9 8 8 8 9 10 10 11 13 13 8 5 6 4 9 11 13 16 19 17 14 14 16 14 12 12 11 10 14 7 10 10 11 4 7 11 17 19 13 9 18 9 15 16 11 16 16
9 9 8 8 9 9 9 11 13 17 21 6 6 7 6 20 12 18 15 14 16 10 12 12 13 14 14 15 14 12 13 12 12 11 12 14 15 17 18 16 21 9 8 11 13 14 14
9 9 8 9 9 9 8 10 12 15 16 7 10 10 8 12 15 9 10 14 13 17 15 13 11 14 17 14 18 11 10 16 11 14 15 16 13 15 15 17 12 17 13 15 12 17 7
10 9 8 10 9 9 8 9 10 11 9 8 11 9 7 11 8 15 19 6 9 10 6 14 12 15 11 7 13 9 6 25 7 15 18 15 15 12 13 15 18 18 12 17 4 4 12
10 9 8 9 9 9 8 8 9 10 9 9 10 8 8 11 12 14 17 10 10 10 8 11 21 13 15 4 8 11 13 14 15 15 15 11 15 12 13 16 16 20 20 7 7 4 11
11 10 8 9 8 8 8 7 9 10 11 8 10 4 7 8 11 15 13 12 6 8 13 15 19 19 7 5 10 14 14 15 17 18 19 19 16 13 12 18 20 3 4 13 13 10 19
12 10 10 9 9 8 8 7 8 10 10 7 8 10 6 9 15 15 10 11 10 13 10 4 12 16 11 9 13 15 16 8 6 3 4 13 16 15 14 14 6 9 12 3 5 3 22
12 10 9 9 9 8 8 6 6 9 10 8 9 3 5 8 16 19 16 14 12 12 9 1 12 17 10 13 12 13 9 6 4 5 4 2 11 13 10 16 11 1 7 6 2 7 17
13 10 9 9 9 8 8 6 5 7 9 8 7 3 2 6 12 21 21 21 19 17 10 5 8 4 10 6 11 7 4 1 4 3 5 5 3 16 3 5 7 3 6 8 7 10 18
Wind_Direction
13 12 8 5 2 360 358 355 352 350 346 342 341 339 338 337 336 333 329 327 324 319 313 311 317 325 322 237 251 148 179 200 224 232 251 264 281 295 33 248 191 173 120 105 136 96 113
11 12 10 7 4 360 355 352 349 346 343 341 338 335 335 334 331 329 325 322 318 312 306 305 312 315 249 270 254 148 211 198 240 230 253 260 289 15 275 240 81 43 277 137 354 43 33
12 12 9 8 4 2 357 353 350 346 343 340 337 334 332 331 328 324 320 314 310 304 297 294 303 294 270 255 316 289 218 239 246 242 277 286 320 295 285 233 165 205 40 358 78 105 262
10 10 8 6 2 358 356 351 348 346 342 339 336 331 329 327 324 321 315 308 303 296 290 283 284 267 263 267 282 255 245 250 244 250 256 287 291 289 285 353 128 161 70 38 252 112 35
6 8 5 3 358 355 355 353 349 342 338 338 336 333 331 328 324 318 312 305 297 286 264 275 240 227 265 148 232 240 247 240 239 233 244 267 277 272 266 223 217 79 112 163 292 289 141
4 3 2 358 355 352 349 348 345 344 342 337 337 331 328 326 325 322 315 292 281 302 220 221 257 274 239 249 234 218 223 237 253 231 234 242 249 254 221 322 102 311 197 207 158 255 208
356 355 355 354 351 349 348 346 343 341 338 336 334 329 327 322 323 327 329 260 207 201 229 222 186 222 138 224 338 223 213 216 244 251 233 226 243 245 119 82 150 202 236 243 307 199 204
349 347 348 348 343 343 343 342 339 337 335 335 331 327 324 321 316 318 287 248 340 328 302 223 251 241 264 302 265 215 234 229 217 234 234 238 226 169 320 140 177 202 273 206 247 40 174
344 342 341 340 335 335 334 335 333 331 329 331 326 324 323 319 316 280 238 260 328 312 275 268 213 230 237 210 246 233 205 217 221 226 234 239 232 214 197 137 254 204 173 1 291 285 286
339 339 335 334 333 331 331 332 335 329 323 320 323 322 324 323 293 311 238 242 250 285 276 238 204 216 220 217 239 251 207 216 227 222 237 248 143 295 240 228 230 311 23 194 246 246 227
313 328 336 331 331 334 329 333 334 326 321 317 317 319 317 332 317 263 18 292 311 257 274 139 173 192 200 203 274 205 226 213 228 231 228 239 204 215 239 269 95 316 253 244 260 280 141
314 309 320 334 332 332 324 330 331 326 319 315 313 310 324 226 215 255 308 294 241 235 241 156 137 191 197 204 239 184 217 220 229 242 243 256 264 194 244 266 78 358 312 229 247 251 212
310 311 305 317 332 325 322 331 328 324 317 313 308 294 278 308 240 312 231 248 220 244 195 156 176 191 205 192 219 233 188 208 220 225 237 241 255 221 220 239 104 142 257 268 248 341 359
308 308 307 302 313 317 320 318 330 321 316 315 308 303 218 233 250 248 255 226 247 222 255 98 196 174 202 206 206 216 198 215 216 231 227 224 229 245 216 249 244 240 260 314 41 27 311
305 306 307 305 305 310 314 320 320 322 320 322 308 195 232 222 220 261 236 224 225 257 278 134 202 221 199 202 200 224 206 212 208 226 241 242 222 230 211 245 232 213 248 89 130 242 223
303 303 306 306 306 312 318 321 322 324 322 331 307 269 234 148 177 217 235 245 249 313 341 6 285 213 225 206 194 210 206 220 225 202 234 252 271 232 212 228 229 234 238 174 40 337 264
297 300 306 307 308 315 319 322 326 329 325 329 243 238 118 155 174 218 232 240 240 246 263 264 276 296 238 202 193 227 220 214 222 230 207 242 254 256 223 196 240 217 229 201 228 184 246
294 298 305 307 310 316 319 324 328 337 334 287 279 262 143 165 196 221 234 247 269 293 184 251 284 299 300 265 195 214 238 241 187 234 217 231 253 247 240 196 213 239 227 225 245 242 257
291 291 301 307 309 315 318 324 327 343 6 316 264 218 168 202 223 221 226 256 263 227 257 219 238 255 281 289 271 204 244 206 214 219 243 211 239 259 131 239 196 236 241 253 274 289 285
282 283 297 309 309 313 317 323 324 334 346 296 272 211 147 212 239 276 282 218 245 220 273 279 263 276 265 277 270 224 240 214 195 209 262 273 244 246 218 318 233 206 226 226 248 246 213
271 274 288 299 310 313 316 322 322 325 329 285 249 288 15 274 221 223 263 287 217 241 203 235 258 263 267 246 262 223 278 227 160 153 252 240 242 257 277 163 323 226 219 231 260 259 287
260 268 283 297 306 311 316 325 326 328 325 239 297 4 176 288 272 201 228 256 282 268 242 203 240 239 234 265 258 231 209 259 209 187 219 223 249 257 271 193 224 207 216 227 219 272 284
251 260 279 296 304 306 315 324 330 342 333 297 353 334 291 282 283 259 246 219 236 249 254 265 242 226 254 229 260 316 337 299 232 183 204 226 235 239 254 251 252 256 225 237 245 216 258
242 252 271 289 292 304 309 319 330 347 359 308 299 322 291 287 301 317 330 289 297 267 235 275 263 269 245 308 324 283 257 267 290 257 195 193 227 247 249 253 247 256 239 219 171 1 23
233 242 261 284 282 300 297 311 322 334 340 305 306 301 301 294 298 311 313 254 289 259 239 269 278 238 273 240 260 273 264 242 256 248 270 235 194 222 241 241 254 233 243 182 250 197 140
227 231 249 279 276 288 290 298 317 329 340 308 300 345 285 296 248 349 299 295 259 285 263 227 243 272 254 283 250 241 254 237 218 232 238 238 244 220 213 241 241 279 4 11 185 198 200
225 224 235 260 279 275 282 281 308 324 338 320 291 299 286 285 271 291 294 339 337 314 276 15 331 246 220 237 242 242 241 317 240 325 339 247 243 230 225 236 206 49 13 54 115 286 332
220 223 229 246 266 267 278 266 294 316 335 332 297 311 309 300 298 288 295 295 290 273 309 24 5 260 213 227 246 247 271 93 301 22 106 227 305 251 245 225 211 86 96 71 210 61 306
210 217 226 240 255 255 266 248 270 300 323 336 274 330 279 269 294 314 289 277 276 284 302 86 182 330 301 272 220 245 130 17 38 271 27 339 11 309 21 64 159 191 128 98 78 274 212